FLOCK 3K-8 (43901 NORAD) Tracking and Keplerian Element Data

This shows tracking and keplerian element data for the satellite.

Feedback or suggestion? Click here.




ElementValue
Catalog43901
NameFLOCK 3K-8
Epoch Orbit458
Epoch Day26.16175045
Epoch Year2019
RAAN295.247
Inclination97.2992
Eccentricity0.0023905
Argument of Perigee135.6949
Mean Anonmoly224.6207
Mean Motion15.236342
Decay Rate7.12E-06
L11 43901U 18111AB 19026.16175045 .00000712 00000-0 32415-4 0 9995
L22 43901 97.2992 295.2470 0023905 135.6949 224.6207 15.23634200 4588

Live tracking and technical data element details for FLOCK 3K-8 (NORAD 43901). FLOCK 3K-8 can be tracked NOW for your location showing map with azimuth and elevation plus other details from your city location.

Track the satellite on the map from your city or location and see movement details for azimuth, elevation, latitude, longitude, range, height, and movement on the map or in text.







IsCatalogInMostPopularTable: catalog: 43901, numindb: 88
Update: records affected: 1



GetName: 43901 FLOCK 3K-8

Hit Count: updated at: Thu, 23 May 2019 15:46:38 GMT